CVR Weather Reports


time (UTC)temp
C
wind
direction
speed
KPH
gust
KPH
rain 1hr
cm
rain 24hr
cm
rain mn
cm
humidity
%
barometer
mb
20260510104548 20 182 3.2 9.7 0.00 0.00 0.00 90 1012.4
20260510103040 20 174 4.8 11.3 0.00 0.00 0.00 89 1012.4
20260510101532 20 136 4.8 11.3 0.00 0.00 0.00 89 1012.4
20260510100035 20 157 4.8 8.0 0.00 0.00 0.00 89 1012.4
20260510094535 20 157 3.2 8.0 0.00 0.00 0.00 88 1012.4
20260510093034 20 157 3.2 9.7 0.00 0.00 0.00 87 1012.4
20260510091539 21 165 4.8 12.9 0.00 0.00 0.00 87 1012.3
20260510090040 21 149 3.2 9.7 0.00 0.00 0.00 87 1012.2
20260510084548 20 161 4.8 8.0 0.00 0.00 0.00 88 1012.2
20260510083039 21 132 3.2 9.7 0.00 0.00 0.00 87 1012.2
20260510081537 21 177 3.2 9.7 0.00 0.00 0.00 87 1012.3
20260510080035 21 172 3.2 8.0 0.00 0.00 0.00 86 1012.3
20260510074541 21 190 4.8 9.7 0.00 0.00 0.00 85 1012.3
20260510073048 21 171 4.8 14.5 0.00 0.00 0.00 85 1012.4
20260510071537 21 178 3.2 16.1 0.00 0.00 0.00 84 1012.3
20260510070038 22 190 4.8 14.5 0.00 0.00 0.00 83 1012.3
20260510064544 22 202 4.8 12.9 0.00 0.00 0.00 82 1012.4
20260510063035 22 165 3.2 9.7 0.00 0.00 0.00 81 1012.4
20260510061531 22 147 3.2 12.9 0.00 0.00 0.00 81 1012.3
20260510060040 22 173 3.2 9.7 0.00 0.00 0.00 85 1012.4
20260510054536 19 0 0.0 0.0 0.00 0.00 0.00 92 1012.4
20260510053039 19 0 0.0 0.0 0.00 0.00 0.00 90 1012.2
20260510051532 20 0 0.0 0.0 0.00 0.00 0.00 90 1012.1
20260510050034 20 0 0.0 0.0 0.00 0.00 0.00 89 1012.1
20260510044532 21 0 0.0 0.0 0.00 0.00 0.00 87 1012.0
20260510043037 21 22 0.0 4.8 0.00 0.00 0.00 84 1011.9
20260510041539 23 0 0.0 8.0 0.00 0.00 0.00 77 1011.9
20260510040036 24 0 1.6 11.3 0.00 0.00 0.00 76 1011.7
20260510034533 25 147 4.8 11.3 0.00 0.00 0.00 75 1011.5
20260510033034 25 163 6.4 12.9 0.00 0.00 0.00 75 1011.5
20260510031540 24 161 3.2 8.0 0.00 0.00 0.00 77 1011.3
20260510030038 22 158 0.0 3.2 0.00 0.00 0.00 84 1011.1
20260510024536 21 0 0.0 0.0 0.00 0.00 0.00 86 1011.0
20260510023041 21 0 0.0 0.0 0.00 0.00 0.00 85 1010.9
20260510021540 22 0 0.0 0.0 0.00 0.00 0.00 83 1010.7
20260510020037 22 0 0.0 0.0 0.00 0.00 0.00 82 1010.4
20260510014545 23 0 0.0 0.0 0.00 0.00 0.00 78 1010.1
20260510013045 23 0 0.0 0.0 0.00 0.00 0.00 76 1009.9
20260510011536 25 0 0.0 0.0 0.00 0.00 0.00 68 1009.9
20260510010040 27 0 0.0 3.2 0.00 0.00 0.00 59 1009.6
20260510004542 28 0 0.0 1.6 0.00 0.00 0.00 56 1009.4
20260510003041 29 159 1.6 9.7 0.00 0.00 0.00 53 1009.3
20260510001538 30 155 1.6 8.0 0.00 0.00 0.00 51 1009.4
20260510000037 30 0 0.0 0.0 0.00 0.00 0.00 50 1009.3
20260509234539 31 0 0.0 1.6 0.00 0.00 0.00 49 1009.1
20260509233041 31 0 3.2 9.7 0.00 0.00 0.00 47 1009.2
20260509231538 31 155 3.2 6.4 0.00 0.00 0.00 46 1009.2
20260509230042 31 0 0.0 4.8 0.00 0.00 0.00 47 1009.2
20260509224539 31 0 0.0 6.4 0.00 0.00 0.00 46 1009.2
20260509223042 31 159 1.6 11.3 0.00 0.00 0.00 47 1009.4
20260509221536 30 0 0.0 4.8 0.00 0.00 0.00 52 1009.4
20260509220038 31 13 3.2 8.0 0.00 0.00 0.00 48 1009.3
20260509214537 31 0 0.0 6.4 0.00 0.00 0.00 50 1009.4
20260509213041 30 0 0.0 6.4 0.00 0.00 0.00 53 1009.4
20260509211546 31 219 0.0 9.7 0.00 0.00 0.00 50 1009.6
20260509210039 31 0 1.6 11.3 0.00 0.00 0.00 50 1009.9
20260509204537 30 179 8.0 12.9 0.00 0.00 0.00 52 1010.1
20260509203037 30 218 1.6 6.4 0.00 0.00 0.00 52 1010.3
20260509201535 31 219 3.2 14.5 0.00 0.00 0.00 51 1010.6
20260509200044 31 254 3.2 11.3 0.00 0.00 0.00 55 1010.6
20260509194538 30 227 9.7 19.3 0.00 0.00 0.00 54 1010.8
20260509193037 30 134 1.6 12.9 0.00 0.00 0.00 58 1010.9
20260509191537 30 242 3.2 16.1 0.00 0.00 0.00 56 1011.2
20260509190052 29 206 8.0 14.5 0.00 0.00 0.00 62 1011.4
20260509184541 29 296 4.8 14.5 0.00 0.00 0.00 62 1011.6
20260509183036 28 187 8.0 16.1 0.00 0.00 0.00 61 1011.7
20260509181544 28 151 1.6 14.5 0.00 0.00 0.00 65 1012.1
20260509180036 28 134 6.4 16.1 0.00 0.00 0.00 67 1012.2
20260509174536 27 157 4.8 11.3 0.00 0.00 0.00 71 1012.4
20260509173045 26 0 0.0 8.0 0.00 0.00 0.00 76 1012.7
20260509171536 27 298 8.0 19.3 0.00 0.00 0.00 74 1012.7
20260509170037 27 170 4.8 17.7 0.00 0.00 0.00 73 1012.8
20260509164537 25 215 3.2 9.7 0.00 0.00 0.00 78 1012.9
20260509163044 26 162 6.4 14.5 0.00 0.00 0.00 77 1012.9
20260509161534 24 183 6.4 11.3 0.00 0.00 0.00 82 1012.9
20260509160041 25 154 8.0 14.5 0.00 0.00 0.00 81 1012.9
20260509154543 23 200 8.0 17.7 0.00 0.00 0.00 84 1012.9
20260509153037 23 150 11.3 19.3 0.00 0.00 0.00 86 1012.8
20260509151535 22 163 4.8 12.9 0.00 0.00 0.00 90 1012.8
20260509150035 22 156 3.2 9.7 0.00 0.00 0.00 92 1012.6
20260509144537 22 163 6.4 11.3 0.00 0.00 0.00 95 1012.4
20260509143048 21 297 3.2 6.4 0.00 0.00 0.00 96 1012.8
20260509141542 21 338 4.8 8.0 0.00 0.00 0.00 97 1012.9
20260509140047 20 352 4.8 12.9 0.00 0.00 0.00 97 1012.9
20260509134537 20 342 4.8 6.4 0.00 0.00 0.00 97 1012.9
20260509133042 20 13 3.2 6.4 0.00 0.00 0.00 98 1013.0
20260509131543 21 349 1.6 4.8 0.00 0.00 0.00 98 1012.8
20260509130044 20 0 0.0 3.2 0.00 0.00 0.00 98 1012.5
20260509124540 20 0 0.0 1.6 0.00 0.00 0.00 98 1012.5
20260509123048 20 349 0.0 6.4 0.00 0.00 0.00 98 1012.8
20260509121535 20 21 4.8 9.7 0.00 0.00 0.00 98 1012.7
20260509120034 20 352 3.2 6.4 0.00 0.00 0.00 98 1012.8
20260509114542 20 352 1.6 12.9 0.00 0.00 0.00 98 1012.5
20260509113052 20 320 6.4 16.1 0.00 0.00 0.00 98 1012.8
20260509111545 20 5 4.8 8.0 0.00 0.00 0.00 97 1012.5
20260509110037 20 0 0.0 1.6 0.00 0.00 0.00 97 1012.0